DW7092 Weather Reports


time (UTC)temp
F
wind
direction
speed
knots
gust
knots
rain 1hr
in
rain 24hr
in
rain mn
in
humidity
%
barometer
mb
20260906220025 88 9 0.0 0.0 0.00 0.00 0.00 34 1017.1
20260906215525 88 128 0.0 0.0 0.00 0.00 0.00 34 1017.2
20260906215025 87 42 0.0 1.7 0.00 0.00 0.00 35 1017.3
20260906214526 87 49 0.0 0.0 0.00 0.00 0.00 35 1017.4
20260906214026 88 329 0.0 0.0 0.00 0.00 0.00 32 1017.5
20260906213526 88 334 0.0 0.9 0.00 0.00 0.00 33 1017.4
20260906213040 87 63 0.0 0.9 0.00 0.00 0.00 33 1017.5
20260906212521 86 234 0.0 0.0 0.00 0.00 0.00 33 1017.5
20260906212022 86 176 0.0 0.0 0.00 0.00 0.00 33 1017.6
20260906211548 85 202 0.0 0.0 0.00 0.00 0.00 35 1017.6
20260906211045 85 201 0.0 1.7 0.00 0.00 0.00 34 1017.8
20260906210548 84 200 0.0 1.7 0.00 0.00 0.00 35 1017.9
20260906210028 84 97 0.0 0.0 0.00 0.00 0.00 37 1018.0
20260906205525 84 212 0.0 0.0 0.00 0.00 0.00 36 1018.0
20260906205057 86 173 0.0 2.6 0.00 0.00 0.00 35 1018.0
20260906204534 87 27 0.0 2.6 0.00 0.00 0.00 34 1018.1
20260906204035 87 96 0.0 2.6 0.00 0.00 0.00 36 1018.1
20260906203535 85 223 0.0 0.0 0.00 0.00 0.00 36 1018.1
20260906203035 86 223 0.0 0.0 0.00 0.00 0.00 34 1018.2
20260906202537 87 111 0.0 0.0 0.00 0.00 0.00 33 1018.2
20260906202036 87 197 0.0 0.0 0.00 0.00 0.00 36 1018.2
20260906201537 86 259 0.0 0.0 0.00 0.00 0.00 35 1018.3
20260906201038 86 316 0.0 0.0 0.00 0.00 0.00 34 1018.3
20260906200535 87 336 0.0 0.0 0.00 0.00 0.00 38 1018.4
20260906200033 86 311 0.0 0.0 0.00 0.00 0.00 36 1018.4
20260906195534 85 304 0.0 0.0 0.00 0.00 0.00 36 1018.4
20260906195141 86 304 0.0 0.9 0.00 0.00 0.00 35 1018.4
20260906194527 86 350 0.0 0.9 0.00 0.00 0.00 36 1018.5
20260906194057 86 121 0.0 0.0 0.00 0.00 0.00 35 1018.6
20260906193539 86 336 0.0 0.0 0.00 0.00 0.00 36 1018.6
20260906193040 85 25 0.0 0.0 0.00 0.00 0.00 38 1018.7
20260906192542 85 68 0.0 0.0 0.00 0.00 0.00 38 1018.7
20260906192043 83 207 0.0 0.0 0.00 0.00 0.00 37 1018.8
20260906191545 82 286 0.0 2.6 0.00 0.00 0.00 41 1018.9
20260906191047 83 307 0.0 0.9 0.00 0.00 0.00 40 1018.9
20260906190527 83 297 0.0 0.0 0.00 0.00 0.00 40 1018.9
20260906190051 83 341 0.0 0.0 0.00 0.00 0.00 40 1019.0
20260906185528 83 341 0.0 0.0 0.00 0.00 0.00 43 1019.1
20260906185026 83 336 0.0 0.0 0.00 0.00 0.00 43 1019.2
20260906184526 83 291 0.0 0.0 0.00 0.00 0.00 44 1019.3
20260906184023 82 308 0.0 0.0 0.00 0.00 0.00 46 1019.5
20260906183524 80 308 0.0 0.0 0.00 0.00 0.00 46 1019.6
20260906183024 80 188 0.0 0.0 0.00 0.00 0.00 46 1019.7
20260906182525 80 282 0.0 0.0 0.00 0.00 0.00 47 1019.8
20260906182100 80 282 0.0 0.9 0.00 0.00 0.00 46 1019.8
20260906181521 81 50 0.0 0.9 0.00 0.00 0.00 48 1019.9
20260906181025 80 50 0.0 0.0 0.00 0.00 0.00 50 1020.0
20260906180550 79 341 0.0 0.0 0.00 0.00 0.00 50 1020.0
20260906180104 80 89 0.0 0.0 0.00 0.00 0.00 49 1020.1
20260906175543 79 145 0.0 0.0 0.00 0.00 0.00 51 1020.2
20260906175042 77 150 0.0 0.0 0.00 0.00 0.00 56 1020.4
20260906174542 77 151 0.0 0.0 0.00 0.00 0.00 57 1020.6
20260906174043 76 151 0.0 0.0 0.00 0.00 0.00 53 1020.7
20260906173542 76 66 0.0 0.0 0.00 0.00 0.00 56 1020.7
20260906173043 75 63 0.0 0.9 0.00 0.00 0.00 57 1020.8
20260906172546 75 332 0.0 0.9 0.00 0.00 0.00 59 1020.8
20260906172048 75 357 0.0 0.0 0.00 0.00 0.00 56 1020.9
20260906171547 76 87 0.0 0.0 0.00 0.00 0.00 58 1020.9
20260906171049 74 89 0.0 0.0 0.00 0.00 0.00 60 1020.9
20260906170544 73 331 0.0 0.0 0.00 0.00 0.00 60 1021.0
20260906170047 74 331 0.0 0.0 0.00 0.00 0.00 60 1021.1
20260906165527 73 340 0.0 0.0 0.00 0.00 0.00 62 1021.1
20260906165055 73 328 0.0 0.0 0.00 0.00 0.00 64 1021.2
20260906164534 72 328 0.0 0.0 0.00 0.00 0.00 63 1021.2
20260906164035 72 328 0.0 0.0 0.00 0.00 0.00 64 1021.2
20260906163536 71 328 0.0 0.0 0.00 0.00 0.00 67 1021.3
20260906163036 71 328 0.0 0.0 0.00 0.00 0.00 66 1021.3
20260906162533 71 328 0.0 0.0 0.00 0.00 0.00 66 1021.1
20260906162105 71 328 0.0 0.0 0.00 0.00 0.00 66 1021.1
20260906161548 71 327 0.0 0.0 0.00 0.00 0.00 65 1021.1
20260906161024 71 327 0.0 0.0 0.00 0.00 0.00 67 1021.1
20260906160524 70 326 0.0 0.0 0.00 0.00 0.00 68 1021.1
20260906160025 69 326 0.0 0.0 0.00 0.00 0.00 69 1021.2
20260906155525 69 331 0.0 0.0 0.00 0.00 0.00 70 1021.2
20260906155029 69 333 0.0 0.0 0.00 0.00 0.00 69 1021.2
20260906154533 69 330 0.0 0.0 0.00 0.00 0.00 70 1021.3
20260906154031 68 329 0.0 0.0 0.00 0.00 0.00 70 1021.3
20260906153533 68 1 0.0 0.0 0.00 0.00 0.00 72 1021.2
20260906153043 67 333 0.0 0.0 0.00 0.00 0.00 72 1021.2
20260906152523 67 328 0.0 0.0 0.00 0.00 0.00 73 1021.3
20260906152025 67 328 0.0 0.0 0.00 0.00 0.00 74 1021.4
20260906151528 66 327 0.0 0.0 0.00 0.00 0.00 74 1021.4
20260906151029 66 327 0.0 0.9 0.00 0.00 0.00 76 1021.4
20260906150554 65 327 0.0 0.9 0.00 0.00 0.00 77 1021.3
20260906150108 64 322 0.0 0.0 0.00 0.00 0.00 78 1021.3
20260906145547 64 322 0.0 0.0 0.00 0.00 0.00 78 1021.4
20260906145048 64 322 0.0 0.0 0.00 0.00 0.00 78 1021.4
20260906144546 64 322 0.0 0.0 0.00 0.00 0.00 78 1021.5
20260906144047 64 322 0.0 0.0 0.00 0.00 0.00 78 1021.5
20260906143530 64 322 0.0 0.0 0.00 0.00 0.00 80 1021.4
20260906143039 64 322 0.0 0.0 0.00 0.00 0.00 80 1021.3
20260906142534 63 41 0.0 0.0 0.00 0.00 0.00 81 1021.4
20260906142034 63 315 0.0 0.0 0.00 0.00 0.00 82 1021.3
20260906141535 62 322 0.0 0.0 0.00 0.00 0.00 83 1021.3
20260906141031 62 326 0.0 0.0 0.00 0.00 0.00 84 1021.4
20260906140531 61 328 0.0 0.0 0.00 0.00 0.00 85 1021.4
20260906140106 61 328 0.0 0.0 0.00 0.00 0.00 85 1021.4
20260906135547 60 328 0.0 0.0 0.00 0.00 0.00 86 1021.3
20260906135050 60 328 0.0 0.0 0.00 0.00 0.00 86 1021.3
20260906134551 59 328 0.0 0.0 0.00 0.00 0.00 86 1021.4
20260906134041 59 328 0.0 0.0 0.00 0.00 0.00 86 1021.5
20260906133543 59 328 0.0 0.0 0.00 0.00 0.00 86 1021.4
20260906133023 59 328 0.0 0.0 0.00 0.00 0.00 85 1021.4
20260906132526 59 328 0.0 0.0 0.00 0.00 0.00 85 1021.3
20260906132028 59 328 0.0 0.0 0.00 0.00 0.00 84 1021.3
20260906131526 59 328 0.0 0.0 0.00 0.00 0.00 83 1021.3
20260906131051 59 328 0.0 0.0 0.00 0.00 0.00 83 1021.4
20260906130551 59 328 0.0 0.0 0.00 0.00 0.00 83 1021.3
20260906130027 59 328 0.0 0.0 0.00 0.00 0.00 83 1021.2
20260906125526 58 328 0.0 0.0 0.00 0.00 0.00 83 1021.1
20260906125056 58 328 0.0 0.0 0.00 0.00 0.00 82 1021.1
20260906124608 58 328 0.0 0.0 0.00 0.00 0.00 82 1021.1
20260906124048 58 328 0.0 0.0 0.00 0.00 0.00 81 1021.0
20260906123545 58 328 0.0 0.0 0.00 0.00 0.00 81 1021.1
20260906123024 58 328 0.0 0.0 0.00 0.00 0.00 81 1021.1
20260906122525 58 328 0.0 0.0 0.00 0.00 0.00 81 1021.0
20260906122028 58 328 0.0 0.0 0.00 0.00 0.00 81 1021.0
20260906121526 57 328 0.0 0.0 0.00 0.00 0.00 80 1021.0
20260906121029 57 328 0.0 0.0 0.00 0.00 0.00 80 1020.9
20260906120533 57 328 0.0 0.0 0.00 0.00 0.00 79 1020.9
20260906120043 57 328 0.0 0.0 0.00 0.00 0.00 79 1020.9
20260906115523 57 328 0.0 0.0 0.00 0.00 0.00 79 1020.9
20260906115026 57 328 0.0 0.0 0.00 0.00 0.00 79 1020.9
20260906114537 57 328 0.0 0.0 0.00 0.00 0.00 79 1020.9
20260906114048 57 328 0.0 0.0 0.00 0.00 0.00 78 1021.0
20260906113551 57 328 0.0 0.0 0.00 0.00 0.00 77 1020.9
20260906113045 57 328 0.0 0.0 0.00 0.00 0.00 77 1021.0
20260906112546 58 328 0.0 0.0 0.00 0.00 0.00 77 1020.9
20260906112049 57 328 0.0 0.0 0.00 0.00 0.00 76 1020.9
20260906111545 58 328 0.0 0.0 0.00 0.00 0.00 76 1020.8
20260906111044 58 328 0.0 0.0 0.00 0.00 0.00 75 1020.8
20260906110525 58 328 0.0 0.0 0.00 0.00 0.00 75 1020.9
20260906110056 58 328 0.0 0.0 0.00 0.00 0.00 75 1020.8
20260906105537 58 328 0.0 0.0 0.00 0.00 0.00 75 1020.7
20260906105039 58 328 0.0 0.0 0.00 0.00 0.00 74 1020.8
20260906104542 59 328 0.0 0.0 0.00 0.00 0.00 74 1020.8
20260906104025 59 328 0.0 0.0 0.00 0.00 0.00 74 1020.8
20260906103527 59 328 0.0 0.0 0.00 0.00 0.00 75 1020.9
20260906103102 59 328 0.0 0.0 0.00 0.00 0.00 73 1020.8
20260906102541 59 328 0.0 0.0 0.00 0.00 0.00 72 1020.8
20260906102023 59 328 0.0 0.0 0.00 0.00 0.00 72 1020.8
20260906101524 60 328 0.0 0.0 0.00 0.00 0.00 72 1020.8
20260906101049 60 328 0.0 0.0 0.00 0.00 0.00 71 1020.8
20260906100531 61 328 0.0 0.0 0.00 0.00 0.00 71 1020.7
20260906100033 61 328 0.0 0.0 0.00 0.00 0.00 71 1020.8
20260906095536 61 328 0.0 0.0 0.00 0.00 0.00 70 1020.8
20260906095038 61 328 0.0 0.0 0.00 0.00 0.00 70 1020.9
20260906094539 61 328 0.0 0.0 0.00 0.00 0.00 70 1020.8
20260906094041 62 328 0.0 0.0 0.00 0.00 0.00 69 1020.9
20260906093542 62 328 0.0 0.0 0.00 0.00 0.00 68 1020.7
20260906093043 62 328 0.0 0.0 0.00 0.00 0.00 68 1020.6
20260906092545 62 328 0.0 0.0 0.00 0.00 0.00 67 1020.6
20260906092100 62 328 0.0 0.0 0.00 0.00 0.00 68 1020.5
20260906091540 62 328 0.0 0.0 0.00 0.00 0.00 67 1020.4
20260906091039 62 328 0.0 0.0 0.00 0.00 0.00 66 1020.2
20260906090541 63 328 0.0 0.0 0.00 0.00 0.00 66 1020.1
20260906090023 63 328 0.0 0.0 0.00 0.00 0.00 66 1020.0
20260906085525 63 328 0.0 0.0 0.00 0.00 0.00 65 1020.0
20260906085054 64 328 0.0 0.0 0.00 0.00 0.00 65 1020.1
20260906084548 64 328 0.0 0.0 0.00 0.00 0.00 64 1020.0
20260906084027 64 328 0.0 0.0 0.00 0.00 0.00 63 1020.1
20260906083601 65 328 0.0 0.0 0.00 0.00 0.00 62 1020.2
20260906083041 65 328 0.0 0.0 0.00 0.00 0.00 61 1020.1
20260906082522 65 328 0.0 0.0 0.00 0.00 0.00 61 1020.1
20260906082025 65 328 0.0 0.0 0.00 0.00 0.00 60 1020.1
20260906081524 66 328 0.0 0.9 0.00 0.00 0.00 60 1020.2
20260906081027 66 327 0.0 0.9 0.00 0.00 0.00 60 1020.2
20260906080529 66 313 0.0 0.0 0.00 0.00 0.00 59 1020.2
20260906080031 66 313 0.0 0.0 0.00 0.00 0.00 58 1020.1
20260906075533 66 312 0.0 0.0 0.00 0.00 0.00 57 1020.1
20260906075043 66 311 0.0 0.0 0.00 0.00 0.00 56 1020.1
20260906074546 66 305 0.0 0.0 0.00 0.00 0.00 56 1020.1
20260906074101 66 305 0.0 0.0 0.00 0.00 0.00 55 1020.1
20260906073522 66 305 0.0 0.0 0.00 0.00 0.00 55 1020.1
20260906073022 66 305 0.0 0.0 0.00 0.00 0.00 53 1020.1
20260906072525 66 305 0.0 0.0 0.00 0.00 0.00 52 1020.1
20260906072056 67 305 0.0 0.0 0.00 0.00 0.00 51 1020.2
20260906071533 67 305 0.0 0.0 0.00 0.00 0.00 51 1020.1
20260906071036 67 304 0.0 0.0 0.00 0.00 0.00 50 1020.3
20260906070537 68 304 0.0 0.0 0.00 0.00 0.00 49 1020.2
20260906070036 67 304 0.0 0.0 0.00 0.00 0.00 49 1020.1
20260906065534 67 305 0.0 0.0 0.00 0.00 0.00 51 1020.0
20260906065031 66 276 0.0 0.0 0.00 0.00 0.00 53 1020.0
20260906064604 66 272 0.0 0.0 0.00 0.00 0.00 54 1020.1
20260906064043 66 272 0.0 0.0 0.00 0.00 0.00 53 1020.0
20260906063544 66 272 0.0 0.0 0.00 0.00 0.00 53 1020.1
20260906063029 67 272 0.0 0.0 0.00 0.00 0.00 52 1020.1
20260906062529 67 272 0.0 0.0 0.00 0.00 0.00 51 1020.0
20260906062023 67 272 0.0 0.0 0.00 0.00 0.00 51 1020.1
20260906061524 67 272 0.0 0.0 0.00 0.00 0.00 51 1020.2
20260906061035 68 272 0.0 0.0 0.00 0.00 0.00 50 1020.2
20260906060537 68 270 0.0 0.0 0.00 0.00 0.00 50 1020.3
20260906060037 69 270 0.0 0.0 0.00 0.00 0.00 48 1020.4
20260906055540 69 270 0.0 0.0 0.00 0.00 0.00 48 1020.4
20260906055042 68 231 0.0 0.0 0.00 0.00 0.00 48 1020.4
20260906054545 69 231 0.0 0.0 0.00 0.00 0.00 48 1020.2
20260906054026 69 231 0.0 0.0 0.00 0.00 0.00 47 1020.3
20260906053539 69 231 0.0 0.0 0.00 0.00 0.00 47 1020.3
20260906053039 69 231 0.0 0.0 0.00 0.00 0.00 47 1020.3
20260906052542 70 231 0.0 0.0 0.00 0.00 0.00 46 1020.2
20260906052023 70 231 0.0 0.0 0.00 0.00 0.00 46 1020.1
20260906051526 70 231 0.0 0.0 0.00 0.00 0.00 46 1020.2
20260906051025 70 231 0.0 0.0 0.00 0.00 0.00 45 1020.2
20260906050528 70 231 0.0 0.0 0.00 0.00 0.00 46 1020.1
20260906050031 70 231 0.0 0.0 0.00 0.00 0.00 45 1020.1
20260906045607 70 231 0.0 0.0 0.00 0.00 0.00 44 1020.1
20260906045045 70 231 0.0 0.0 0.00 0.00 0.00 45 1020.2
20260906044546 70 230 0.0 0.0 0.00 0.00 0.00 44 1020.2
20260906044047 70 230 0.0 0.0 0.00 0.00 0.00 44 1020.0
20260906043550 70 235 0.0 0.0 0.00 0.00 0.00 45 1019.9
20260906043040 70 295 0.0 0.0 0.00 0.00 0.00 44 1019.7
20260906042523 70 295 0.0 0.0 0.00 0.00 0.00 43 1019.6
20260906042026 70 295 0.0 0.0 0.00 0.00 0.00 44 1019.5
20260906041524 70 293 0.0 0.0 0.00 0.00 0.00 45 1019.5
20260906041025 70 293 0.0 0.0 0.00 0.00 0.00 44 1019.3
20260906040524 71 293 0.0 0.0 0.00 0.00 0.00 43 1019.3
20260906040055 71 293 0.0 0.0 0.00 0.00 0.00 42 1019.1
20260906035533 72 313 0.0 0.0 0.00 0.00 0.00 42 1019.0
20260906035034 72 313 0.0 0.0 0.00 0.00 0.00 40 1018.9
20260906034610 72 313 0.0 0.0 0.00 0.00 0.00 40 1019.0
20260906034028 73 313 0.0 0.0 0.00 0.00 0.00 41 1019.1
20260906033529 74 313 0.0 0.0 0.00 0.00 0.00 38 1019.2
20260906033104 74 313 0.0 0.0 0.00 0.00 0.00 37 1019.2
20260906032545 75 319 0.0 0.0 0.00 0.00 0.00 36 1019.0
20260906032048 75 322 0.0 0.9 0.00 0.00 0.00 36 1018.9
20260906031547 75 320 0.0 0.9 0.00 0.00 0.00 36 1018.8
20260906031028 75 315 0.0 0.0 0.00 0.00 0.00 36 1018.8
20260906030605 75 313 0.0 0.0 0.00 0.00 0.00 36 1018.8
20260906030046 75 291 0.0 0.0 0.00 0.00 0.00 36 1018.7
20260906025549 75 286 0.0 0.9 0.00 0.00 0.00 36 1018.6
20260906025031 75 297 0.0 0.0 0.00 0.00 0.00 36 1018.5
20260906024534 75 297 0.0 0.0 0.00 0.00 0.00 37 1018.5
20260906024036 74 297 0.0 0.0 0.00 0.00 0.00 37 1018.5
20260906023535 74 297 0.0 0.0 0.00 0.00 0.00 38 1018.5
20260906023036 74 297 0.0 0.0 0.00 0.00 0.00 38 1018.6
20260906022536 75 297 0.0 0.0 0.00 0.00 0.00 36 1018.5
20260906022034 75 297 0.0 0.0 0.00 0.00 0.00 36 1018.5
20260906021536 75 297 0.0 0.0 0.00 0.00 0.00 36 1018.4
20260906021034 75 297 0.0 0.0 0.00 0.00 0.00 36 1018.4
20260906020537 75 297 0.0 0.0 0.00 0.00 0.00 36 1018.3
20260906020046 75 297 0.0 0.0 0.00 0.00 0.00 37 1018.3
20260906015548 75 297 0.0 0.0 0.00 0.00 0.00 37 1018.2
20260906015031 75 297 0.0 0.0 0.00 0.00 0.00 36 1018.1
20260906014533 76 297 0.0 0.0 0.00 0.00 0.00 36 1018.1
20260906014035 76 297 0.0 0.0 0.00 0.00 0.00 35 1018.0
20260906013537 77 297 0.0 0.0 0.00 0.00 0.00 34 1018.0
20260906013040 77 297 0.0 0.0 0.00 0.00 0.00 34 1018.0
20260906012543 78 297 0.0 0.0 0.00 0.00 0.00 33 1018.1
20260906012046 79 299 0.0 0.0 0.00 0.00 0.00 31 1018.0
20260906011527 80 301 0.0 0.0 0.00 0.00 0.00 30 1018.0
20260906011030 80 295 0.0 0.0 0.00 0.00 0.00 29 1018.0
20260906010528 81 280 0.0 0.0 0.00 0.00 0.00 28 1017.9
20260906010028 82 270 0.0 0.9 0.00 0.00 0.00 28 1018.0
20260906005528 82 270 0.0 0.9 0.00 0.00 0.00 28 1018.0
20260906005026 82 282 0.0 0.9 0.00 0.00 0.00 27 1018.1
20260906004526 83 257 0.0 7.0 0.00 0.00 0.00 27 1018.1
20260906004039 83 276 0.0 7.0 0.00 0.00 0.00 26 1018.2
20260906003538 84 304 0.0 0.0 0.00 0.00 0.00 26 1018.2
20260906003111 84 276 0.0 0.0 0.00 0.00 0.00 26 1018.2
20260906002546 84 275 0.0 0.9 0.00 0.00 0.00 25 1018.1
20260906002040 84 275 0.0 0.9 0.00 0.00 0.00 25 1018.1
20260906001522 84 278 0.0 1.7 0.00 0.00 0.00 25 1018.0
20260906001044 84 278 0.0 1.7 0.00 0.00 0.00 24 1018.1
20260906000545 84 268 0.0 0.0 0.00 0.00 0.00 25 1018.0
20260906000025 85 268 0.0 1.7 0.00 0.00 0.00 25 1018.1
20260905235525 85 268 0.0 1.7 0.00 0.00 0.00 24 1018.0
20260905235029 86 259 0.0 0.0 0.00 0.00 0.00 24 1017.9
20260905234601 86 271 0.0 0.0 0.00 0.00 0.00 24 1017.9
20260905234035 86 290 0.0 0.0 0.00 0.00 0.00 24 1017.9
20260905233537 87 291 0.0 0.0 0.00 0.00 0.00 26 1017.9
20260905233038 87 291 0.0 0.0 0.00 0.00 0.00 22 1017.9
20260905232539 87 291 0.0 0.0 0.00 0.00 0.00 26 1017.9
20260905232040 87 291 0.0 0.0 0.00 0.00 0.00 24 1017.8
20260905231523 88 291 0.0 0.0 0.00 0.00 0.00 21 1017.8
20260905231022 89 291 0.0 0.0 0.00 0.00 0.00 21 1017.7
20260905230551 90 289 0.0 0.0 0.00 0.00 0.00 21 1017.7
20260905230031 88 289 0.0 0.0 0.00 0.00 0.00 22 1017.6
20260905225528 90 287 0.0 0.0 0.00 0.00 0.00 20 1017.5
20260905225029 90 281 0.0 0.0 0.00 0.00 0.00 21 1017.5
20260905224531 91 284 0.0 0.0 0.00 0.00 0.00 19 1017.5
20260905224033 92 287 0.0 0.0 0.00 0.00 0.00 19 1017.5
20260905223534 92 308 0.0 0.0 0.00 0.00 0.00 19 1017.6
20260905223036 91 298 0.0 0.0 0.00 0.00 0.00 20 1017.6
20260905222538 90 293 0.0 0.0 0.00 0.00 0.00 20 1017.6
20260905222040 90 295 0.0 0.0 0.00 0.00 0.00 22 1017.6
20260905221523 90 294 0.0 0.0 0.00 0.00 0.00 21 1017.6
20260905221027 90 294 0.0 0.0 0.00 0.00 0.00 20 1017.6
20260905220526 89 301 0.0 0.0 0.00 0.00 0.00 22 1017.6